Location: Unspecified
(64.9000°N, 0.0000°E)
Time: 14:43:37
(UTC+00:00)

Transit 2A Rocket - Pass Details

Date: 20 June 2019
Orbit: 588 x 915 km, 66.7° (Epoch: 20 July)

Event Time Altitude Azimuth Distance (km) Brightness Sun altitude
Rises 17:05:30 0° 295° (WNW) 3,466 9.3 27.0°
Reaches altitude 10° 17:08:05 10° 295° (WNW) 2,487 8.9 26.8°
Maximum altitude 17:13:49 76° 211° (SSW) 829 5.8 26.2°
Drops below altitude 10° 17:19:01 10° 126° (SE) 2,264 7.1 25.6°
Sets 17:21:17 0° 125° (SE) 3,134 7.7 25.4°
